KCMH Airport Diagram

We have created a template for each of the higher traffic airports in the vZID airspace. They include KCMH, KCRW, KCVG, KDAY, KIND, KLEX and KSDF. You wil find usefull information including the airport diagram, weather, and specific airport procedures.

KCMH Weather

[Source: ADDS]
METAR
KCMH 172251Z 29005KT 10SM SCT033 SCT090 SCT120 30/23 A2988 RMK AO2 RAE13 SLP108 P0000 T03000228 $ =
KCMH 171748Z 1718/1818 25011KT 6SM -SHRA VCTS SCT008 BKN015CB TEMPO 1718/1720 3SM TSRA BKN008CB FM172100 28009KT P6SM VCSH SCT015 BKN040 FM180000 31005KT P6SM BKN040 FM180900 21003KT 2SM BR SCT015 FM181300 20004KT P6SM SCT025 FM181500 21006KT P6SM SCT040
TAF
KCMH 171748Z 1718/1818 25011KT 6SM -SHRA VCTS SCT008 BKN015CB TEMPO 1718/1720 3SM TSRA BKN008CB FM172100 28009KT P6SM VCSH SCT015 BKN040 FM180000 31005KT P6SM BKN040 FM180900 21003KT 2SM BR SCT015 FM181300 20004KT P6SM SCT025 FM181500 21006KT P6SM SCT040 =

KCMH Operations

Calm wind runway(s) up to 10 kts: Arriving/Departing 28L/R

Typically, Rw 10R/28L for departures to the West and South and Rw 10L/28R for departures to the North and East.

FBOs: Lane Aviation midfield near Tower, Signature South of Twy B.

Advise ATC if you have updated scenery for KCMH as there are significant changes to the runway/taxiways on the South side of the airport. Default scenery does not match the Airport Diagram available through the usual sources.

JSN Epic template designed by JoomlaShine.com